When you browse on this site, cookies collect data to enhance your experience and personalize the content and advertising you see.
Visit our Privacy Policy to learn more. By continuing to use the site, you agree to this use of cookies and data.
  • In Hungary
  • List of Countries
  • For 7 days
  • Water Temperature
  • Satellite Maps
  • Weather Map
  • News
  • Weather Widgets
  • user-avatar
    Login

    Hourly Weather Krizhopol

    Today, 16 January, Wednesday

    Time Temperature Precipitation Wind Pressure Humidity
    00:00 -10°C° 0 mm 4 mps 727 mmHg 87%
    01:00 -11°C° 0 mm 4 mps 727 mmHg 87%
    02:00 -12°C° 0 mm 3 mps 727 mmHg 88%
    03:00 -12°C° 0 mm 3 mps 726 mmHg 88%
    04:00 -12°C° 0 mm 4 mps 726 mmHg 88%
    05:00 -12°C° 0 mm 4 mps 725 mmHg 88%
    06:00 -11°C° 0.4 mm 4 mps 725 mmHg 90%
    07:00 -11°C° 0.4 mm 5 mps 724 mmHg 93%
    08:00 -10°C° 0 mm 5 mps 724 mmHg 95%
    09:00 -8°C° 0.7 mm 6 mps 724 mmHg 94%
    10:00 -6°C° 0.7 mm 7 mps 724 mmHg 93%
    11:00 -3°C° 0.7 mm 7 mps 725 mmHg 92%
    12:00 -3°C° 0.1 mm 7 mps 725 mmHg 90%
    13:00 -4°C° 0.1 mm 7 mps 726 mmHg 89%
    14:00 -4°C° 0 mm 6 mps 727 mmHg 88%
    15:00 -5°C° 0 mm 5 mps 728 mmHg 89%
    16:00 -6°C° 0 mm 5 mps 729 mmHg 90%
    17:00 -7°C° 0 mm 4 mps 730 mmHg 90%
    18:00 -7°C° 0 mm 3 mps 731 mmHg 90%
    19:00 -8°C° 0 mm 3 mps 732 mmHg 90%
    20:00 -8°C° 0 mm 2 mps 732 mmHg 90%
    21:00 -9°C° 0 mm 2 mps 733 mmHg 90%
    22:00 -8°C° 0 mm 1 mps 733 mmHg 89%
    23:00 -9°C° 0 mm 1 mps 733 mmHg 89%

    Tomorrow, 17 January, Thursday

    Time Temperature Precipitation Wind Pressure Humidity
    00:00 -8°C° 0 mm 1 mps 734 mmHg 89%
    01:00 -8°C° 0 mm 1 mps 734 mmHg 89%
    02:00 -9°C° 0 mm 2 mps 734 mmHg 88%
    03:00 -8°C° 0 mm 2 mps 734 mmHg 89%
    04:00 -8°C° 0 mm 3 mps 734 mmHg 90%
    05:00 -7°C° 0 mm 3 mps 734 mmHg 91%
    06:00 -6°C° 0 mm 3 mps 734 mmHg 92%
    07:00 -6°C° 0 mm 3 mps 734 mmHg 92%
    08:00 -7°C° 0 mm 4 mps 734 mmHg 92%
    09:00 -5°C° 0 mm 4 mps 734 mmHg 91%
    10:00 -6°C° 0 mm 5 mps 734 mmHg 90%
    11:00 -5°C° 0 mm 5 mps 734 mmHg 90%
    12:00 -4°C° 0 mm 5 mps 734 mmHg 90%
    13:00 -4°C° 0 mm 5 mps 733 mmHg 90%
    14:00 -3°C° 0 mm 6 mps 733 mmHg 90%
    15:00 -4°C° 0 mm 5 mps 733 mmHg 91%
    16:00 -4°C° 0 mm 5 mps 733 mmHg 92%
    17:00 -5°C° 0 mm 5 mps 733 mmHg 93%
    18:00 -4°C° 0 mm 4 mps 732 mmHg 94%
    19:00 -5°C° 0 mm 4 mps 732 mmHg 94%
    20:00 -5°C° 0 mm 3 mps 732 mmHg 94%
    21:00 -5°C° 0 mm 3 mps 732 mmHg 93%
    22:00 -5°C° 0 mm 3 mps 732 mmHg 91%
    23:00 -5°C° 0 mm 3 mps 732 mmHg 90%

    Day after tomorrow, 18 January, Friday

    Time Temperature Precipitation Wind Pressure Humidity
    00:00 -5°C° 0 mm 3 mps 732 mmHg 89%
    01:00 -4°C° 0 mm 3 mps 733 mmHg 88%
    02:00 -4°C° 0 mm 3 mps 733 mmHg 87%
    03:00 -4°C° 0 mm 3 mps 732 mmHg 87%
    04:00 -4°C° 0 mm 3 mps 732 mmHg 86%
    05:00 -4°C° 0 mm 3 mps 732 mmHg 86%
    06:00 -4°C° 0 mm 3 mps 732 mmHg 85%
    07:00 -2°C° 0 mm 3 mps 732 mmHg 85%
    08:00 -2°C° 0 mm 3 mps 732 mmHg 85%
    09:00 -1°C° 0 mm 3 mps 732 mmHg 86%
    10:00 -2°C° 0 mm 4 mps 732 mmHg 87%
    11:00 -1°C° 0 mm 4 mps 732 mmHg 88%
    12:00 -1°C° 0 mm 4 mps 732 mmHg 88%
    13:00 -1°C° 0 mm 4 mps 732 mmHg 88%
    14:00 0°C° 0 mm 4 mps 732 mmHg 88%
    15:00 -1°C° 0 mm 4 mps 732 mmHg 88%
    16:00 0°C° 0 mm 3 mps 733 mmHg 88%
    17:00 0°C° 0 mm 3 mps 733 mmHg 88%
    18:00 0°C° 0.1 mm 3 mps 734 mmHg 88%
    19:00 -1°C° 0.1 mm 4 mps 734 mmHg 88%
    20:00 -1°C° 0.1 mm 5 mps 735 mmHg 88%
    21:00 -2°C° 0 mm 4 mps 736 mmHg 88%
    22:00 -3°C° 0 mm 4 mps 736 mmHg 88%
    23:00 -4°C° 0 mm 4 mps 737 mmHg 88%

    19 January, Saturday

    Time Temperature Precipitation Wind Pressure Humidity
    00:00 -5°C° 0 mm 4 mps 738 mmHg 89%
    01:00 -7°C° 0 mm 4 mps 738 mmHg 90%
    02:00 -8°C° 0 mm 4 mps 739 mmHg 90%
    03:00 -9°C° 0 mm 4 mps 739 mmHg 90%
    04:00 -9°C° 0 mm 4 mps 739 mmHg 89%
    05:00 -9°C° 0 mm 3 mps 740 mmHg 88%
    06:00 -10°C° 0 mm 3 mps 740 mmHg 89%
    07:00 -10°C° 0 mm 2 mps 741 mmHg 89%
    08:00 -10°C° 0 mm 2 mps 741 mmHg 90%
    09:00 -9°C° 0 mm 2 mps 742 mmHg 90%
    10:00 -8°C° 0 mm 2 mps 742 mmHg 90%
    11:00 -7°C° 0 mm 2 mps 742 mmHg 90%
    12:00 -4°C° 0 mm 1 mps 742 mmHg 90%
    13:00 -4°C° 0 mm 1 mps 742 mmHg 90%
    14:00 -3°C° 0 mm 1 mps 742 mmHg 90%
    15:00 -6°C° 0 mm 0 mps 742 mmHg 89%
    16:00 -7°C° 0 mm 0 mps 742 mmHg 89%
    17:00 -9°C° 0 mm 0 mps 742 mmHg 88%
    18:00 -9°C° 0 mm 0 mps 742 mmHg 87%
    19:00 -9°C° 0 mm 1 mps 742 mmHg 86%
    20:00 -9°C° 0 mm 1 mps 742 mmHg 85%
    21:00 -9°C° 0 mm 1 mps 742 mmHg 85%
    22:00 -10°C° 0 mm 2 mps 742 mmHg 86%
    23:00 -10°C° 0 mm 2 mps 742 mmHg 86%

    20 January, Sunday

    Time Temperature Precipitation Wind Pressure Humidity
    00:00 -10°C° 0 mm 2 mps 742 mmHg 87%
    01:00 -10°C° 0 mm 2 mps 741 mmHg 87%
    02:00 -12°C° 0 mm 3 mps 741 mmHg 88%
    03:00 -10°C° 0 mm 3 mps 741 mmHg 88%
    04:00 -10°C° 0 mm 3 mps 740 mmHg 88%
    05:00 -9°C° 0 mm 3 mps 740 mmHg 88%
    06:00 -10°C° 0 mm 4 mps 740 mmHg 87%
    07:00 -10°C° 0 mm 4 mps 739 mmHg 87%
    08:00 -11°C° 0 mm 5 mps 739 mmHg 87%
    09:00 -10°C° 0 mm 5 mps 739 mmHg 87%
    10:00 -9°C° 0 mm 6 mps 738 mmHg 87%
    11:00 -9°C° 0 mm 6 mps 738 mmHg 87%
    12:00 -8°C° 0.3 mm 6 mps 737 mmHg 89%
    13:00 -6°C° 0.3 mm 6 mps 737 mmHg 91%
    14:00 -6°C° 0.3 mm 6 mps 736 mmHg 94%
    15:00 -5°C° 0.6 mm 5 mps 735 mmHg 94%
    16:00 -5°C° 0.6 mm 5 mps 735 mmHg 95%
    17:00 -3°C° 0.6 mm 4 mps 735 mmHg 95%
    18:00 -2°C° 0.8 mm 3 mps 734 mmHg 96%
    19:00 -2°C° 0.8 mm 2 mps 734 mmHg 97%
    20:00 -2°C° 0.8 mm 2 mps 734 mmHg 97%
    21:00 -2°C° 0.2 mm 2 mps 734 mmHg 97%
    22:00 -2°C° 0.2 mm 3 mps 734 mmHg 96%
    23:00 -2°C° 0.2 mm 3 mps 734 mmHg 96%

    21 January, Monday

    Time Temperature Precipitation Wind Pressure Humidity
    00:00 -4°C° 0 mm 4 mps 734 mmHg 96%
    01:00 -5°C° 0 mm 4 mps 734 mmHg 95%
    02:00 -7°C° 0 mm 5 mps 734 mmHg 95%
    03:00 -8°C° 0 mm 5 mps 735 mmHg 93%
    04:00 -8°C° 0 mm 5 mps 735 mmHg 92%
    05:00 -8°C° 0 mm 5 mps 735 mmHg 90%
    06:00 -10°C° 0 mm 5 mps 736 mmHg 91%
    07:00 -9°C° 0 mm 4 mps 736 mmHg 91%
    08:00 -10°C° 0 mm 4 mps 737 mmHg 91%
    09:00 -10°C° 0 mm 4 mps 737 mmHg 92%
    10:00 -10°C° 0 mm 4 mps 737 mmHg 92%
    11:00 -9°C° 0 mm 4 mps 738 mmHg 92%
    12:00 -9°C° 0 mm 4 mps 738 mmHg 92%
    13:00 -9°C° 0 mm 4 mps 738 mmHg 92%
    14:00 -8°C° 0 mm 4 mps 738 mmHg 91%
    15:00 -9°C° 0 mm 4 mps 738 mmHg 91%
    16:00 -9°C° 0 mm 4 mps 738 mmHg 91%
    17:00 -9°C° 0 mm 4 mps 739 mmHg 90%
    18:00 -9°C° 0 mm 4 mps 739 mmHg 88%
    19:00 -8°C° 0 mm 5 mps 740 mmHg 86%
    20:00 -8°C° 0 mm 5 mps 740 mmHg 84%
    21:00 -10°C° 0 mm 5 mps 741 mmHg 86%
    22:00 -12°C° 0 mm 5 mps 741 mmHg 87%
    23:00 -13°C° 0 mm 5 mps 742 mmHg 89%
    Show more